Regional Weather Roundup
Issued by NWS

Home | Current Version | Previous Version | Text Only | Print | Product List | Glossary On
Versions: 1 2 3 4 5 6 7 8 9 10 11 12 13 14 15 16 17 18 19 20 21 22 23 24 25 26 27 28 29 30 31 32 33 34 35 36 37 38 39 40 41 42 43 44 45 46 47 48 49 50
000
ASUS43 KMKX 251321
RWRWI

WISCONSIN REGIONAL WEATHER ROUNDUP
NATIONAL WEATHER SERVICE MILWAUKEE/SULLIVAN WI
800 AM CDT MON JUL 25 2016

NOTE: "FAIR" INDICATES FEW OR NO CLOUDS BELOW 12,000 FEET WITH NO
SIGNIFICANT WEATHER AND/OR OBSTRUCTIONS TO VISIBILITY.

WIZ001-002-006>008-014>016-023>028-251400-
NORTHWEST WISCONSIN

CITY           SKY/WX    TMP DP  RH WIND       PRES   REMARKS
SUPERIOR ARPT  SUNNY     68  63  85 W6        30.00R
ASHLAND        SUNNY     69  61  75 W8        30.00R
HAYWARD        SUNNY     67  61  81 SW3       30.03R
SIREN          SUNNY     66  61  82 NW5       30.04
CUMBERLAND     SUNNY     66  61  82 NW6       30.05R
RICE LAKE      SUNNY     67  62  82 W6        30.05S
CHETEK         SUNNY     68  63  83 CALM      30.04R
LADYSMITH      SUNNY     68  63  85 W6        30.05R
EAU CLAIRE     SUNNY     69  63  81 W6        30.03R
MENOMONIE      SUNNY     70  62  75 W8        30.04S
NEW RICHMOND   SUNNY     68  60  75 NW5       30.05S
OSCEOLA        SUNNY     68  67  96 CALM      30.07S
$$

WIZ003>005-009-010-017-018-251400-
NORTH CENTRAL WISCONSIN

CITY           SKY/WX    TMP DP  RH WIND       PRES   REMARKS
MANITOWISH WTR SUNNY     65  62  89 NW8       30.00R
ARBOR VITAE    SUNNY     69  62  77 NW9       30.00R
WOODRUFF       SUNNY     69  62  77 NW9       30.00R
RHINELANDER    SUNNY     68  60  75 W8        30.01R
EAGLE RIVER    SUNNY     67  58  72 NW10      29.99R
LAND O LAKES   SUNNY     67  58  72 NW12      30.00R
PHILLIPS       SUNNY     66  62  89 CALM      30.02R
TOMAHAWK       SUNNY     66  61  83 NW6       30.02R
MEDFORD        SUNNY     65  65 100 W7        30.02S
MERRILL        SUNNY     66  63  88 NW7       30.01R
$$

WIZ029-030-035-036-043>047-251400-
CENTRAL WISCONSIN

CITY           SKY/WX    TMP DP  RH WIND       PRES   REMARKS
WAUSAU         SUNNY     68  62  81 W9        29.99R
MOSINEE        SUNNY     68  64  88 W5        30.02R
MARSHFIELD     SUNNY     69  62  78 NW9       30.02R
STEVENS POINT  SUNNY     67  61  81 W6        30.02R
WAUPACA        SUNNY     72  65  78 W5        30.00R
WAUTOMA        SUNNY     71  65  81 W8        30.01R
WISC RAPIDS    SUNNY     69  62  78 NW7       30.03R
CAMP DOUGLAS   SUNNY     70  66  88 W10       30.02R
$$

WIZ011>013-019>022-031-037>040-048>050-251400-
NORTHEAST WISCONSIN

CITY           SKY/WX    TMP DP  RH WIND       PRES   REMARKS
ANTIGO         SUNNY     66  62  86 NW3       30.00R
SHAWANO        SUNNY     71  63  76 W6        29.97S
OCONTO         SUNNY     70  66  87 W9        29.94R
STURGEON BAY   SUNNY     72  64  76 W8        29.95R
GREEN BAY      SUNNY     71  66  84 W9        29.97R
MANITOWOC      MOSUNNY   72  63  73 W10       29.97R
APPLETON       MOSUNNY   70  63  78 W8        29.96S
CLINTONVILLE   SUNNY     70  61  73 NW8       29.98R
OSHKOSH        SUNNY     72  64  76 W8        29.99R HAZE
$$

WIZ032>034-041-042-053>061-251400-
SOUTHWEST WISCONSIN

CITY           SKY/WX    TMP DP  RH WIND       PRES   REMARKS
LA CROSSE      SUNNY     73  65  75 CALM      30.03R
SPARTA         SUNNY     69  65  88 SW3       30.04R
VIROQUA        SUNNY     68  67  99 W6        30.07R
BOSCOBEL       SUNNY     71  68  90 SW3       30.04S
PRAIRIE DU CHI SUNNY     70  64  81 W3        30.05S
PLATTEVILLE    SUNNY     69  69  99 NW3       30.04F
$$

WIZ056-057-062-063-064-067-068-251400-
SOUTH CENTRAL WISCONSIN

CITY           SKY/WX    TMP DP  RH WIND       PRES   REMARKS
REEDSBURG      SUNNY     70  66  88 W6        30.02F
BARABOO/DELLS  SUNNY     70  64  83 W5        30.03S
LONE ROCK      SUNNY     71  67  87 W5        30.04R
MINERAL POINT  SUNNY     72  68  88 NW5       30.04S
MADISON        MOSUNNY   73  66  78 CALM      30.01S
MIDDLETON      SUNNY     73  67  82 NW6       30.02S
WATERTOWN      SUNNY     72  66  82 W8        30.00S
MONROE         SUNNY     72  64  78 W8        30.03S
JANESVILLE     SUNNY     73  68  83 NW8       30.00S
$$

WIZ051-052-058>065-066-070>072-251400-
SOUTHEAST WISCONSIN

CITY           SKY/WX    TMP DP  RH WIND       PRES   REMARKS
MILWAUKEE      MOSUNNY   77  63  61 NW9       29.98R
WAUKESHA       SUNNY     70  64  83 NW8       30.00S
MILWAUKEE/TIMM SUNNY     73  61  64 NW8       29.99R
RACINE         SUNNY     75  65  70 NW8       30.00S
BURLINGTON     SUNNY     74  67  79 NW6       30.00R
KENOSHA        SUNNY     74  66  76 NW8       29.99F
FOND DU LAC    SUNNY     73  65  75 NW9       29.99S
SHEBOYGAN      SUNNY     73  65  75 NW7       29.98R
WEST BEND      SUNNY     72  63  73 NW8       29.99S
JUNEAU         SUNNY     71  65  82 NW6       30.01F
$$

LSZ147-162-251400-
LAKE SUPERIOR

STATION/POSITION TIME  TEMP    WIND        PRES    WAVE
                       AIR SEA DIR/SP/G            HT/PER
                 (UTC) (F)     (DEG/KT/KT) (MB)    (FT/S)
W MID LAKE BUOY  1250   63 59  270/ 14/ 16 1012.6R   2/ 4
DEVILS ISLAND    1300   64     260/ 14/ 17 1014.6R
SAXON HARBOR     1240   69     210/  5/  8 1014.6R
$$

LMZ867-665-643>646-251400-
LAKE MICHIGAN

STATION/POSITION TIME  TEMP    WIND        PRES    WAVE
                       AIR SEA DIR/SP/G            HT/PER
                 (UTC) (F)     (DEG/KT/KT) (MB)    (FT/S)
CHAMBERS ISLAND  1200   71     260/  6/  9 1012.9R
S GREEN BAY BUOY 1030   70 74  250/ 12/ 14   N/A
N MID LAKE BUOY  1250   69 68  260/ 12/ 14 1011.6R   2/ 6
NORTHPORT PIER   1200   72     290/  7/ 14 1012.5R
KEWAUNEE LAKESHO 1300   72     290/  7/ 11 1013.9R
SHEBOYGAN LAKESH 1300   73     290/ 12/ 15 1014.6R
PORT WASHINGTON  1200   74     300/  7/ 11 1015.6R
MILWAUKEE LAKESH 1310   75     290/  4/  5   N/A
S MID LAKE BUOY  1250   73 72  310/ 12/ 14 1013.8F   2/ 3
KENOSHA   LAKESH 1300   75     320/ 10/ 13 1014.6S
$$

TC  - TEMPERATURE IN CELSIUS
VSB - VISIBILITY IN STATUTE MILES
WCI - WIND CHILL INDEX
HX  - HEAT INDEX





USA.gov is the U.S. government's official web portal to all federal, state and local government web resources and services.